Date,TemperatureHighF,TemperatureAvgF,TemperatureLowF,DewpointHighF,DewpointAvgF,DewpointLowF,HumidityHigh,HumidityAvg,HumidityLow,PressureMaxIn,PressureMinIn,WindSpeedMaxMPH,WindSpeedAvgMPH,GustSpeedMaxMPH,PrecipitationSumIn
2014-1-1,55.0,40.9,28.0,24.4,19.3,11.8,77,48,22,63.06,40.00,8,1,14,0.00
2014-1-2,56.0,41.3,25.0,30.9,25.9,20.9,94,59,31,63.06,40.00,3,0,0,0.00
2014-1-3,59.0,43.9,28.0,33.0,27.1,19.7,90,57,23,63.06,40.00,6,0,0,0.00
2014-1-4,56.0,41.0,27.0,29.2,25.0,20.7,85,58,25,63.06,40.00,7,0,0,0.00
2014-1-5,45.0,29.4,23.0,23.7,14.0,-1.5,88,58,14,63.06,30.00,8,1,0,19.00
2014-1-6,39.0,30.7,25.0,18.0,9.6,-0.5,67,45,19,63.06,40.00,38,3,0,27.04
2014-1-7,30.0,26.2,25.0,19.7,17.1,13.7,74,68,59,63.06,40.00,0,0,0,0.00
2014-1-8,37.0,31.0,29.0,25.4,22.7,20.5,75,71,59,63.06,40.00,0,0,0,0.00
2014-1-9,55.0,36.8,24.0,25.1,21.9,8.8,94,61,16,63.06,40.00,15,2,15,0.00
2014-1-10,65.0,44.2,30.0,32.9,26.7,17.9,92,55,23,63.06,40.00,8,0,0,0.00
2014-1-11,66.0,42.8,28.0,29.4,26.6,22.1,94,60,23,63.06,40.00,6,0,0,0.00
2014-1-12,46.0,40.6,33.0,32.6,25.6,12.4,81,57,34,63.06,40.00,12,2,12,0.00
2014-1-13,50.0,42.6,35.0,16.8,13.5,9.9,38,30,25,63.06,40.00,13,4,17,0.00
2014-1-14,54.0,46.8,41.0,15.7,11.5,8.0,34,24,17,63.06,40.00,16,6,20,0.00
2014-1-15,55.0,46.7,33.0,19.0,14.7,9.1,51,28,21,63.06,40.00,17,3,17,0.00
2014-1-16,56.0,48.0,37.0,12.2,6.9,1.6,35,19,13,63.06,40.00,17,3,16,0.00
2014-1-17,59.0,38.2,25.0,22.9,13.6,3.6,66,41,17,63.06,40.00,6,0,0,0.00
2014-1-18,58.0,36.6,24.0,22.4,14.2,5.7,64,45,16,63.06,40.00,7,0,0,0.00
2014-1-19,68.0,39.7,27.0,25.1,17.8,12.7,67,47,13,63.06,40.00,6,0,0,0.00
2014-1-20,59.0,37.9,26.0,22.9,17.6,12.7,74,49,18,63.06,40.00,7,0,12,0.00
2014-1-21,54.0,38.7,26.0,26.1,19.1,12.9,73,49,23,63.06,40.00,4,0,0,0.00
2014-1-22,61.0,40.5,27.0,24.6,18.2,9.0,68,46,13,63.06,40.00,7,0,0,0.00
2014-1-23,55.0,35.8,24.0,24.4,17.1,9.6,71,51,23,63.06,40.00,7,0,0,0.00
2014-1-24,50.0,39.8,29.0,27.3,22.9,18.1,71,52,33,63.06,40.00,4,0,0,0.00
2014-1-25,56.0,41.4,30.0,29.2,25.6,21.4,83,56,31,63.06,40.00,7,0,0,0.00
2014-1-26,56.0,40.9,28.0,35.8,30.0,25.2,95,69,36,63.06,40.00,6,0,0,0.00
2014-1-27,54.0,39.9,27.0,35.3,22.4,13.5,99,57,22,63.06,40.00,9,1,0,0.00
2014-1-28,60.0,40.5,27.0,26.8,21.4,16.6,85,53,19,63.06,40.00,6,0,0,0.00
2014-1-29,70.0,46.6,31.0,38.6,28.6,21.7,86,53,25,63.06,40.00,5,0,0,0.00
2014-1-30,51.0,45.0,40.0,40.2,34.7,27.7,100,70,43,63.06,40.00,17,1,17,0.07
2014-1-31,40.0,37.3,36.0,40.0,37.3,36.0,100,100,100,63.06,40.00,12,2,15,0.39
2014-2-1,36.0,31.1,23.0,24.0,11.2,4.8,79,44,35,63.06,40.00,16,4,17,0.00
2014-2-2,45.0,30.2,18.0,30.0,19.9,12.2,99,69,33,63.06,40.00,13,1,16,0.00
2014-2-3,39.0,31.1,22.0,32.0,27.1,22.0,100,86,56,63.06,40.00,7,1,14,0.02
2014-2-4,42.0,33.1,26.0,34.2,30.4,26.0,100,91,70,63.06,40.00,8,0,0,0.00
2014-2-5,47.0,33.0,27.0,32.0,28.3,21.5,100,86,46,63.06,40.00,5,0,0,0.00
2014-2-6,38.0,34.4,30.0,35.4,33.8,29.8,100,97,88,63.06,40.00,9,0,0,0.01
2014-2-7,48.0,37.4,30.0,44.6,36.1,30.0,100,95,79,63.06,40.00,9,0,0,0.01
2014-2-8,60.0,47.1,34.0,44.0,37.7,32.6,100,72,44,63.06,40.00,9,0,12,0.00
2014-2-9,68.0,46.4,34.0,38.3,31.4,20.6,100,61,24,63.06,40.00,6,0,0,0.00
2014-2-10,54.0,47.0,39.0,39.8,35.1,30.6,89,65,44,63.06,40.00,20,3,20,0.00
2014-2-11,60.0,41.2,28.0,38.7,30.9,23.2,100,72,29,63.06,40.00,9,1,0,0.00
2014-2-12,68.0,45.4,29.0,32.6,27.0,21.6,94,57,21,63.06,40.00,9,0,0,0.00
2014-2-13,70.0,56.6,37.0,30.5,20.6,5.7,74,29,12,63.06,40.00,10,1,15,0.00
2014-2-14,73.0,50.2,33.0,34.5,20.5,8.8,67,39,10,63.06,40.00,13,1,13,0.00
2014-2-15,70.0,48.7,32.0,37.7,25.6,20.7,75,45,20,63.06,40.00,12,0,12,0.00
2014-2-16,67.0,49.5,36.0,32.4,27.1,18.2,76,44,25,63.06,40.00,9,0,12,0.00
2014-2-17,63.0,47.0,32.0,40.5,33.3,26.7,91,63,26,63.06,40.00,12,1,16,0.00
2014-2-18,60.0,42.7,27.0,34.1,26.1,19.8,94,59,21,63.06,40.00,7,1,0,0.00
2014-2-19,64.0,46.6,34.0,29.5,19.4,6.5,76,40,12,63.06,40.00,17,2,20,0.00
2014-2-20,59.0,39.4,26.0,37.0,25.2,17.9,100,63,21,63.06,40.00,11,0,0,0.00
2014-2-21,66.0,43.4,30.0,31.4,26.1,20.6,85,57,21,63.06,40.00,7,0,0,0.00
2014-2-22,64.0,43.1,28.0,32.6,26.2,19.9,87,58,24,63.06,40.00,6,0,0,0.00
2014-2-23,65.0,43.0,28.0,31.1,27.2,23.6,95,60,23,63.06,40.00,6,0,0,0.00
2014-2-24,67.0,44.2,28.0,36.0,28.8,23.6,93,63,23,63.06,40.00,7,0,0,0.00
2014-2-25,61.0,44.1,29.0,40.4,33.0,27.8,97,70,29,63.06,40.00,7,0,17,0.00
2014-2-26,54.0,43.1,38.0,41.8,34.2,21.4,97,73,40,63.06,40.00,9,1,0,0.02
2014-2-27,55.0,43.5,39.0,48.0,41.1,30.2,100,92,65,63.06,40.00,13,2,15,0.41
2014-2-28,47.0,41.6,34.0,47.0,41.0,29.8,100,98,64,63.06,40.00,15,3,28,0.33
2014-3-1,39.0,34.9,32.0,39.0,34.9,32.0,100,100,100,63.06,40.00,19,1,19,2.97
2014-3-2,43.0,37.5,32.0,43.0,37.5,32.0,100,100,100,63.06,40.00,5,0,0,0.19
2014-3-3,54.0,39.5,29.0,49.7,38.2,29.0,100,96,72,63.06,40.00,9,0,0,0.00
2014-3-4,53.0,41.9,32.0,42.0,36.5,30.2,100,83,47,63.06,40.00,16,2,21,0.00
2014-3-5,64.0,45.5,29.0,45.6,36.9,29.0,100,76,37,63.06,40.00,9,0,0,0.00
2014-3-6,65.0,48.9,36.0,49.0,38.7,27.9,100,71,36,0.00,40.00,7,0,12,0.00
2014-3-7,54.0,44.8,36.0,38.7,26.4,16.3,100,53,27,63.06,40.00,17,4,17,0.00
2014-3-8,57.0,47.2,36.0,23.2,19.4,11.0,55,33,22,63.06,40.00,20,5,22,0.00
2014-3-9,63.0,44.1,28.0,33.4,26.0,18.8,88,55,23,63.06,40.00,8,0,0,0.00
2014-3-10,68.0,47.5,33.0,34.6,27.6,20.0,83,51,22,63.06,40.00,9,0,0,0.00
2014-3-11,54.0,41.8,29.0,37.6,26.3,13.4,100,60,30,63.06,40.00,9,1,13,0.00
2014-3-12,52.0,40.5,30.0,27.7,16.7,8.3,81,40,27,0.00,40.00,13,2,17,0.00
2014-3-13,55.0,41.1,28.0,30.4,22.1,15.5,88,53,22,63.06,40.00,12,2,16,0.00
2014-3-14,66.0,46.7,29.0,33.5,22.1,6.5,87,44,12,63.06,40.00,9,1,15,0.00
2014-3-15,62.0,47.9,29.0,25.8,21.8,15.0,77,39,19,63.06,40.00,13,3,19,0.00
2014-3-16,68.0,63.7,60.0,21.6,20.3,18.5,22,19,16,63.06,40.00,9,2,0,81.56
2014-3-17,70.0,57.1,37.0,43.3,26.7,16.9,64,34,17,63.06,40.00,8,0,0,0.00
2014-3-18,56.0,42.4,30.0,32.5,21.3,11.0,100,49,19,63.06,40.00,15,2,15,0.00
2014-3-19,66.0,43.1,24.0,30.9,17.9,7.6,77,43,16,63.06,40.00,8,1,0,0.00
2014-3-20,65.0,45.6,29.0,39.5,29.7,19.7,90,61,18,63.06,40.00,10,1,14,0.00
2014-3-21,61.0,44.8,29.0,42.8,33.5,21.3,96,69,27,63.06,40.00,9,1,12,0.00
2014-3-22,62.0,44.6,30.0,42.2,33.8,28.5,100,72,29,63.06,40.00,13,1,13,0.00
2014-3-23,67.0,46.5,30.0,40.1,30.4,25.0,100,62,23,63.06,40.00,9,0,15,0.00
2014-3-24,70.0,49.6,33.0,36.2,30.6,21.3,94,55,18,63.06,40.00,11,1,13,0.00
2014-3-25,68.0,42.3,31.0,41.7,31.7,18.9,97,73,18,63.06,40.00,15,0,15,0.00
2014-3-26,40.0,37.3,36.0,39.2,37.2,36.0,100,100,96,63.06,40.00,12,2,16,0.35
2014-3-27,52.0,39.1,34.0,45.2,37.5,34.0,100,95,73,63.06,40.00,11,1,15,0.05
2014-3-28,62.0,42.5,28.0,40.3,32.2,26.7,100,74,26,63.06,40.00,6,0,0,0.02
2014-3-29,67.0,48.1,32.0,44.0,37.1,31.6,100,72,32,63.06,40.00,10,0,0,0.00
2014-3-30,59.0,42.8,35.0,40.0,32.8,9.0,100,74,18,63.06,40.00,14,1,15,0.05
2014-3-31,55.0,41.1,32.0,37.2,30.7,22.7,97,70,34,63.06,40.00,24,2,24,0.00
2014-4-1,44.0,34.6,31.0,38.4,33.1,31.0,100,94,72,63.06,40.00,14,2,20,0.39
2014-4-2,44.0,32.6,26.0,40.7,31.8,26.0,100,97,83,63.06,40.00,9,0,14,0.11
2014-4-3,55.0,38.4,23.0,41.7,29.1,20.8,100,73,36,63.06,40.00,13,1,13,0.01
2014-4-4,51.0,38.9,34.0,32.6,23.3,14.3,77,52,28,63.06,30.14,7,0,16,0.00
2014-4-5,55.0,45.1,32.0,32.1,28.1,21.6,95,55,29,63.06,40.00,13,3,17,0.00
2014-4-6,60.0,44.9,30.0,31.4,27.4,21.6,99,56,25,63.06,40.00,16,3,25,0.00
2014-4-7,73.0,52.5,34.0,38.7,29.0,22.1,86,46,16,63.06,40.00,10,1,16,0.00
2014-4-8,71.0,37.8,35.0,36.8,32.6,30.8,90,82,24,63.06,40.00,1,0,0,0.00
2014-4-9,79.0,71.5,55.0,25.0,18.3,12.4,26,14,9,63.06,40.00,12,2,13,19.00
2014-4-10,75.0,63.1,52.0,29.6,19.2,4.3,39,20,11,63.06,40.00,11,1,13,82.48
2014-4-11,73.0,57.3,43.0,27.3,18.9,4.3,46,23,13,63.06,40.00,15,1,21,0.00
2014-4-12,64.0,47.8,37.0,42.7,29.7,8.5,92,53,22,63.06,40.00,16,1,17,0.00
2014-4-13,70.0,50.5,32.0,43.0,36.0,26.5,100,65,29,63.06,40.00,12,1,16,0.00
2014-4-14,68.0,52.6,39.0,36.6,22.7,12.9,81,36,14,63.06,40.00,14,2,16,0.00
2014-4-15,73.0,52.2,34.0,39.4,32.0,25.0,82,51,23,63.06,40.00,10,0,13,0.00
2014-4-16,76.0,53.8,34.0,41.9,30.6,23.6,86,49,18,63.06,40.00,12,2,12,0.00
2014-4-17,72.0,60.4,39.0,48.5,40.9,32.4,92,53,25,63.06,40.00,12,1,17,0.00
2014-4-18,67.0,55.7,47.0,45.3,38.7,29.8,88,55,33,63.06,40.00,10,1,15,0.00
2014-4-19,71.0,53.1,37.0,45.4,40.1,35.7,96,66,33,63.06,40.00,12,1,12,0.00
2014-4-20,73.0,54.7,37.0,45.9,37.7,31.7,99,59,27,63.06,40.00,16,1,16,0.00
2014-4-21,73.0,56.5,39.0,41.1,36.1,29.0,84,51,24,63.06,40.00,16,1,22,0.00
2014-4-22,65.0,51.5,35.0,43.9,35.9,24.2,81,56,39,63.06,40.00,10,1,14,0.00
2014-4-23,63.0,42.2,30.0,38.9,25.5,13.9,90,56,23,63.06,40.00,12,1,13,0.00
2014-4-24,71.0,50.0,30.0,42.1,32.6,25.9,94,59,24,63.06,40.00,12,1,14,0.00
2014-4-25,59.0,47.3,35.0,42.5,35.8,28.3,100,67,37,63.06,40.00,17,2,22,0.35
2014-4-26,50.0,38.0,29.0,43.5,35.7,29.0,100,92,68,63.06,40.00,12,1,20,0.92
2014-4-27,63.0,44.4,29.0,38.6,29.6,14.7,100,62,25,63.06,40.00,16,2,17,0.00
2014-4-28,63.0,51.2,38.0,33.3,27.0,16.5,65,41,24,63.06,40.00,14,3,16,0.00
2014-4-29,63.0,55.5,48.0,21.7,16.5,8.2,35,22,15,63.06,40.00,20,7,24,0.00
2014-4-30,62.0,54.2,49.0,16.0,12.0,8.2,23,19,12,63.06,40.00,25,10,27,0.00
2014-5-1,70.0,57.6,40.0,32.4,17.1,6.6,62,24,11,63.06,40.00,19,5,23,0.00
2014-5-2,82.0,58.8,36.0,38.5,29.4,20.1,81,40,13,63.06,40.00,9,0,0,0.00
2014-5-3,80.0,58.7,38.0,36.2,28.9,21.3,70,38,14,63.06,40.00,19,1,19,0.00
2014-5-4,74.0,60.4,50.0,32.7,23.4,10.2,34,24,16,63.06,40.00,13,1,20,0.00
2014-5-5,66.0,52.7,41.0,43.1,29.7,10.4,97,46,20,63.06,40.00,15,2,17,0.00
2014-5-6,47.0,39.1,31.0,40.5,36.8,31.0,100,92,65,63.06,40.00,12,1,20,0.10
2014-5-7,55.0,42.2,29.0,46.7,38.3,29.0,100,87,61,63.06,40.00,13,1,14,0.00
2014-5-8,64.0,48.9,31.0,43.8,36.7,30.1,100,68,31,63.06,40.00,13,1,16,0.00
2014-5-9,69.0,51.8,35.0,47.6,40.8,31.1,96,70,37,63.06,40.00,12,1,16,0.00
2014-5-10,68.0,51.7,38.0,48.0,33.2,11.4,97,58,13,63.06,40.00,16,3,20,0.00
2014-5-11,58.0,46.8,37.0,29.2,16.2,7.2,66,33,15,63.06,40.00,36,8,36,0.00
2014-5-12,68.0,49.8,37.0,32.4,22.3,12.7,68,38,13,63.06,25.01,19,2,19,0.00
2014-5-13,68.0,56.7,39.0,28.8,17.7,6.5,64,24,11,30.11,29.96,26,3,28,0.00
2014-5-14,74.0,61.4,44.0,33.9,18.2,9.0,60,21,11,30.10,30.03,25,4,25,0.00
2014-5-15,87.0,61.4,39.0,38.3,28.9,20.6,68,37,10,30.12,30.02,16,0,16,0.00
2014-5-16,83.0,63.0,42.0,41.6,32.3,23.2,71,38,13,30.05,29.94,16,1,20,0.00
2014-5-17,79.0,63.1,46.0,42.2,36.6,27.5,71,40,21,29.94,29.84,20,1,23,0.00
2014-5-18,72.0,57.4,44.0,47.1,38.8,28.6,82,53,27,29.84,29.76,19,1,19,0.00
2014-5-19,65.0,53.7,44.0,48.3,41.0,33.5,96,64,40,29.84,29.74,22,2,27,0.00
2014-5-20,53.0,43.8,35.0,44.1,39.7,34.7,100,86,59,29.81,29.74,17,1,17,0.01
2014-5-21,62.0,46.1,30.0,45.2,38.4,30.0,100,78,49,29.83,29.73,15,1,17,0.00
2014-5-22,59.0,46.9,35.0,52.5,40.7,35.0,100,81,44,29.86,29.77,12,1,14,0.01
2014-5-23,72.0,52.0,35.0,49.7,40.5,31.0,100,71,29,29.90,29.81,17,1,17,0.01
2014-5-24,79.0,57.7,41.0,47.9,41.6,36.9,98,62,27,29.91,29.84,15,2,15,0.00
2014-5-25,84.0,61.8,43.0,50.9,42.8,33.7,94,57,20,29.95,29.85,14,1,17,0.00
2014-5-26,84.0,65.7,46.0,50.1,46.2,40.4,91,55,26,30.00,29.87,17,1,19,0.00
2014-5-27,83.0,66.4,48.0,51.6,43.8,29.2,88,49,23,30.02,29.92,16,1,17,0.00
2014-5-28,78.0,63.2,48.0,47.5,40.8,30.5,69,46,26,29.93,29.83,17,1,19,0.00
2014-5-29,77.0,64.0,49.0,47.5,40.5,33.0,77,46,21,29.91,29.80,15,1,19,0.00
2014-5-30,82.0,64.3,46.0,44.0,33.7,20.1,67,37,13,29.93,29.82,18,1,20,0.00
2014-5-31,79.0,60.5,41.0,36.8,26.6,8.6,64,32,12,29.93,29.81,16,1,19,0.00
2014-6-1,80.0,60.2,39.0,41.7,28.1,6.1,64,33,13,29.91,29.80,17,1,17,0.00
2014-6-2,74.0,61.6,45.0,38.9,28.8,13.9,68,32,14,29.88,29.79,23,1,23,0.00
2014-6-3,80.0,63.1,43.0,37.9,24.9,2.6,63,26,12,29.90,29.80,16,1,22,0.00
2014-6-4,80.0,61.5,41.0,40.5,29.3,20.0,67,35,12,29.88,29.78,15,1,17,0.00
2014-6-5,82.0,62.5,41.0,43.6,35.8,19.2,80,43,11,29.88,29.78,13,1,17,0.00
2014-6-6,77.0,60.7,42.0,46.8,40.4,32.1,81,51,27,29.84,29.75,19,1,20,0.00
2014-6-7,84.0,63.0,42.0,49.2,39.4,22.8,87,50,12,29.83,29.74,16,1,17,0.00
2014-6-8,92.0,68.4,46.0,47.7,39.5,27.1,74,42,13,29.91,29.79,16,1,16,0.00
2014-6-9,89.0,71.7,51.0,51.3,41.7,29.0,68,39,13,29.93,29.83,19,1,20,0.00
2014-6-10,80.0,67.5,56.0,54.0,49.4,42.3,84,55,31,29.85,29.78,18,1,22,0.00
2014-6-11,79.0,64.9,50.0,48.5,37.0,24.2,69,40,18,29.91,29.79,16,1,19,0.00
2014-6-12,78.0,66.0,53.0,46.3,35.3,25.8,65,35,16,29.95,29.85,17,1,21,0.00
2014-6-13,77.0,62.8,50.0,44.9,33.4,14.5,64,35,22,29.92,29.83,16,1,20,0.00
2014-6-14,80.0,60.5,38.0,48.8,32.3,11.8,74,38,17,29.87,29.78,13,1,17,0.00
2014-6-15,72.0,59.6,47.0,42.3,36.4,28.5,67,44,25,29.84,29.74,16,1,21,0.00
2014-6-16,72.0,61.6,48.0,45.6,36.4,21.6,66,40,22,29.84,29.78,18,2,25,0.00
2014-6-17,70.0,56.7,47.0,45.8,38.2,20.3,89,52,35,29.86,29.76,19,2,25,0.00
2014-6-18,77.0,57.0,39.0,46.2,37.0,25.4,88,53,18,29.90,29.75,15,2,16,0.00
2014-6-19,84.0,65.7,39.0,43.4,36.0,26.9,90,42,17,29.98,29.85,13,1,16,0.00
2014-6-20,85.0,65.8,44.0,44.9,36.0,28.5,76,39,16,29.99,29.90,17,1,19,0.00
2014-6-21,80.0,65.7,49.0,43.5,35.3,25.6,65,35,20,29.92,29.85,22,1,24,0.00
2014-6-22,80.0,64.3,44.0,48.3,37.9,27.1,81,42,21,29.93,29.83,19,1,19,0.00
2014-6-23,79.0,62.5,44.0,48.0,40.1,33.4,83,48,25,29.93,29.81,13,1,16,0.00
2014-6-24,85.0,65.2,45.0,51.7,42.3,26.4,86,49,15,29.97,29.85,13,1,15,0.00
2014-6-25,85.0,65.3,47.0,51.8,45.2,32.4,90,55,22,29.92,29.82,12,1,16,0.00
2014-6-26,78.0,62.4,48.0,54.4,47.4,39.6,95,62,31,29.91,29.79,16,1,20,0.00
2014-6-27,85.0,65.7,49.0,53.3,44.0,27.0,98,51,18,29.88,29.77,17,2,18,0.00
2014-6-28,88.0,69.4,50.0,55.4,47.6,40.3,84,49,23,29.91,29.80,13,1,16,0.00
2014-6-29,89.0,71.4,51.0,56.3,50.0,42.1,83,52,28,29.97,29.85,13,1,16,0.00
2014-6-30,91.0,73.7,56.0,54.5,47.6,34.5,82,44,22,29.97,29.88,13,1,16,0.00
2014-7-1,88.0,72.7,54.0,51.8,43.3,28.8,64,38,18,29.95,29.85,15,1,18,0.00
2014-7-2,87.0,74.9,62.0,50.1,37.2,23.0,49,26,17,29.97,29.86,17,1,21,0.00
2014-7-3,89.0,73.0,59.0,46.4,39.1,30.9,54,31,18,30.01,29.91,19,1,22,0.00
2014-7-4,85.0,72.2,59.0,59.1,51.1,40.7,68,48,38,30.06,29.95,19,1,21,0.00
2014-7-5,85.0,70.3,57.0,57.4,52.2,46.0,89,56,29,30.10,30.02,13,0,16,0.00
2014-7-6,88.0,71.1,54.0,54.5,49.1,41.4,89,52,24,30.07,29.97,16,1,19,0.00
2014-7-7,88.0,71.2,54.0,49.7,45.1,37.4,78,44,23,30.00,29.92,18,1,20,0.00
2014-7-8,87.0,71.9,55.0,53.8,45.5,38.3,69,43,22,30.02,29.91,15,1,22,0.00
2014-7-9,85.0,70.4,54.0,52.4,46.5,38.1,76,45,25,30.01,29.93,18,1,22,0.00
2014-7-10,80.0,67.8,56.0,50.7,44.0,37.1,70,44,27,29.97,29.89,20,1,26,0.00
2014-7-11,80.0,66.4,53.0,50.3,44.3,38.6,79,47,27,29.99,29.90,14,1,17,0.00
2014-7-12,90.0,67.1,47.0,51.7,45.3,39.6,88,52,22,30.03,29.93,10,0,14,0.00
2014-7-13,92.0,73.4,55.0,54.5,48.7,44.0,78,47,21,30.02,29.96,15,1,17,0.00
2014-7-14,87.0,72.2,63.0,63.6,55.9,48.1,86,59,37,30.04,29.95,14,1,15,0.01
2014-7-15,83.0,69.6,59.0,64.4,56.4,42.6,99,66,32,30.05,29.97,19,1,19,0.00
2014-7-16,77.0,68.3,56.0,52.8,42.6,27.7,62,40,25,30.02,29.94,16,1,25,0.00
2014-7-17,79.0,68.3,55.0,50.5,41.2,28.2,79,41,16,29.98,29.91,19,1,25,0.00
2014-7-18,81.0,67.4,50.0,49.2,37.6,22.5,59,35,15,29.99,29.89,12,1,15,0.00
2014-7-19,84.0,68.6,56.0,55.0,45.7,35.9,82,46,26,29.99,29.90,8,0,11,0.00
2014-7-20,80.0,65.1,51.0,56.7,52.2,46.1,93,67,34,29.99,29.89,18,1,24,0.00
2014-7-21,80.0,64.9,47.0,56.0,45.5,34.4,93,54,27,30.05,29.93,14,1,17,0.00
2014-7-22,84.0,66.7,45.0,49.5,41.4,31.9,93,47,18,30.08,29.97,17,1,18,0.00
2014-7-23,90.0,69.7,48.0,45.7,36.7,26.2,73,36,12,30.08,29.97,13,0,14,0.00
2014-7-24,95.0,74.4,54.0,47.0,34.8,20.8,56,29,10,30.00,29.92,18,1,18,0.00
2014-7-25,88.0,74.0,63.0,51.6,40.4,18.5,51,32,12,30.01,29.91,17,1,23,0.00
2014-7-26,90.0,75.2,64.0,50.1,44.6,27.7,52,34,23,30.07,29.97,15,1,18,0.00
2014-7-27,84.0,69.8,58.0,59.4,51.6,36.7,85,54,30,30.08,29.99,14,1,18,0.00
2014-7-28,86.0,70.4,59.0,59.4,52.4,44.7,87,57,27,30.11,30.03,12,1,15,0.00
2014-7-29,88.0,69.1,53.0,53.5,46.9,40.6,87,51,22,30.10,30.03,12,1,13,0.00
2014-7-30,89.0,74.1,55.0,52.3,48.3,43.2,79,44,23,30.07,30.00,12,1,15,0.00
2014-7-31,93.0,73.4,54.0,53.6,48.1,43.0,84,47,20,30.05,29.99,14,1,16,0.00
2014-8-1,89.0,73.2,55.0,55.3,47.6,41.5,70,43,22,30.05,29.96,25,1,25,0.00
2014-8-2,78.0,64.3,57.0,60.0,54.0,44.5,100,71,39,30.06,29.95,17,0,19,0.09
2014-8-3,69.0,58.4,55.0,61.7,57.6,55.0,100,97,73,30.01,29.92,10,1,12,1.56
2014-8-4,75.0,62.8,55.0,67.0,54.5,34.7,100,78,41,30.01,29.92,16,1,25,0.00
2014-8-5,80.0,62.9,45.0,46.2,39.7,29.4,81,48,19,30.04,29.93,16,1,22,0.00
2014-8-6,79.0,61.5,44.0,47.5,42.2,28.8,94,56,18,30.02,29.93,15,1,19,0.00
2014-8-7,82.0,62.2,43.0,50.8,43.0,30.2,93,55,19,29.97,29.90,15,1,15,0.00
2014-8-8,84.0,64.8,45.0,48.1,41.6,31.1,86,50,18,29.99,29.89,16,1,20,0.00
2014-8-9,85.0,66.6,48.0,51.6,43.6,32.1,90,50,17,30.03,29.92,16,1,20,0.00
2014-8-10,84.0,66.6,48.0,52.2,43.2,36.2,80,47,22,30.05,29.95,16,1,19,0.00
2014-8-11,86.0,69.4,55.0,54.3,49.5,42.6,81,53,28,30.04,29.95,15,1,17,0.00
2014-8-12,84.0,69.3,56.0,57.0,53.7,46.6,89,61,37,30.03,29.95,15,1,16,0.00
2014-8-13,79.0,64.9,57.0,59.7,52.6,45.9,88,66,37,30.01,29.93,16,1,17,0.00
2014-8-14,83.0,66.6,57.0,54.5,45.9,39.7,88,51,24,30.02,29.92,20,1,20,0.00
2014-8-15,84.0,67.6,53.0,54.6,45.8,32.3,80,47,32,30.06,29.95,17,1,17,0.14
2014-8-16,86.0,68.2,52.0,55.3,50.2,46.1,98,59,29,30.09,29.99,16,1,16,0.00
2014-8-17,88.0,70.0,51.0,50.3,46.2,33.8,85,51,17,30.06,29.97,15,1,16,0.00
2014-8-18,84.0,73.1,61.0,53.0,45.2,35.4,54,38,27,29.96,29.88,17,2,22,0.00
2014-8-19,77.0,64.1,53.0,53.5,44.1,33.9,95,51,29,29.90,29.82,23,2,23,0.00
2014-8-20,72.0,57.4,50.0,56.9,47.0,33.8,100,71,41,29.96,29.82,18,1,19,0.10
2014-8-21,80.0,61.8,47.0,57.2,51.8,47.0,100,74,37,29.98,29.87,13,1,14,0.01
2014-8-22,75.0,61.9,50.0,55.8,50.5,37.0,100,69,46,29.98,29.91,22,2,22,0.00
2014-8-23,77.0,62.9,54.0,47.1,37.9,24.2,72,43,21,29.95,29.87,17,1,18,0.00
2014-8-24,78.0,63.9,52.0,48.7,38.3,24.6,68,41,20,29.92,29.83,14,1,20,0.00
2014-8-25,75.0,62.5,53.0,52.2,45.3,38.4,81,55,33,29.93,29.82,25,1,25,0.00
2014-8-26,78.0,64.1,54.0,52.9,44.6,34.3,84,53,27,30.01,29.90,20,1,25,0.00
2014-8-27,83.0,66.8,53.0,51.1,46.3,39.6,80,51,28,30.09,29.99,13,1,16,0.00
2014-8-28,89.0,66.1,49.0,50.3,44.5,29.8,91,54,17,30.09,29.97,13,1,16,0.00
2014-8-29,87.0,67.5,52.0,48.9,41.4,34.3,82,45,17,29.99,29.91,17,1,21,0.00
2014-8-30,89.0,67.2,49.0,48.4,38.0,27.5,73,40,13,29.95,29.87,11,1,17,0.00
2014-8-31,86.0,67.9,52.0,52.0,44.8,31.2,81,49,18,29.93,29.85,14,1,16,0.00
2014-9-1,87.0,69.0,56.0,50.9,39.7,27.3,67,39,13,29.93,29.83,17,1,18,0.00
2014-9-2,85.0,69.0,49.0,51.7,41.6,30.1,72,40,20,29.92,29.83,17,1,19,0.00
2014-9-3,81.0,66.5,50.0,53.0,43.0,31.4,75,46,24,29.85,29.75,12,1,17,0.00
2014-9-4,82.0,65.0,48.0,51.1,40.0,27.6,78,44,17,29.83,29.73,15,1,19,0.00
2014-9-5,86.0,67.7,49.0,53.8,37.5,26.7,83,36,17,29.97,29.81,13,1,18,0.00
2014-9-6,88.0,69.0,54.0,57.9,53.1,47.2,100,63,28,30.03,29.93,13,1,19,0.00
2014-9-7,80.0,66.6,56.0,66.9,56.6,43.3,93,71,46,29.97,29.88,12,1,16,0.02
2014-9-8,71.0,63.8,60.0,66.4,58.3,52.6,98,83,60,29.93,29.86,10,0,13,0.06
2014-9-9,80.0,64.4,49.0,58.7,51.8,42.4,93,68,32,29.96,29.89,9,1,13,0.00
2014-9-10,86.0,63.0,46.0,50.1,42.2,32.0,100,55,18,29.99,29.89,10,1,15,0.00
2014-9-11,86.0,64.9,48.0,50.4,45.2,37.9,90,55,24,29.97,29.90,12,1,13,0.00
2014-9-12,89.0,66.6,49.0,50.3,44.2,38.0,85,51,20,29.97,29.89,13,1,17,0.00
2014-9-13,90.0,68.4,51.0,49.4,42.3,36.1,77,46,16,29.96,29.87,12,0,14,0.00
2014-9-14,89.0,68.9,53.0,52.6,46.7,41.6,80,50,22,29.95,29.87,10,0,12,0.00
2014-9-15,91.0,70.1,55.0,52.9,48.4,44.9,81,51,22,30.00,29.91,9,0,11,0.00
2014-9-16,88.0,67.9,54.0,69.5,54.0,45.9,94,65,28,29.97,29.89,11,0,16,0.03
2014-9-17,86.0,68.1,55.0,61.4,55.6,44.1,100,69,38,29.91,29.84,10,1,18,0.00
2014-9-18,75.0,63.1,53.0,56.7,50.3,40.4,99,65,37,29.89,29.82,12,1,19,0.00
2014-9-19,75.0,60.5,50.0,55.1,51.2,44.9,100,75,41,29.88,29.80,14,1,20,0.00
2014-9-20,78.0,60.9,48.0,56.9,50.5,41.0,100,72,35,29.94,29.85,14,1,20,0.00
2014-9-21,77.0,60.2,45.0,50.6,42.6,35.1,85,56,25,29.97,29.86,14,1,17,0.00
2014-9-22,81.0,60.8,43.0,48.2,42.4,33.6,87,56,20,30.03,29.93,12,0,16,0.00
2014-9-23,82.0,62.1,45.0,46.9,38.2,28.7,87,48,20,30.04,29.93,12,1,17,0.00
2014-9-24,85.0,65.1,49.0,53.0,48.0,40.6,83,58,31,30.01,29.93,16,1,17,0.00
2014-9-25,81.0,67.4,59.0,56.7,51.6,44.2,89,59,33,30.00,29.89,13,1,21,0.00
2014-9-26,72.0,60.3,48.0,57.7,51.9,41.9,94,76,45,29.89,29.75,26,2,30,0.00
2014-9-27,61.0,49.3,41.0,47.7,41.4,29.7,99,76,50,29.79,29.72,15,1,19,0.00
2014-9-28,63.0,49.7,40.0,47.3,44.6,39.7,100,85,54,29.82,29.71,12,1,19,0.00
2014-9-29,66.0,51.4,39.0,44.7,40.3,35.9,100,70,36,29.88,29.80,12,1,14,0.00
2014-9-30,76.0,54.4,37.0,44.2,38.7,35.4,97,61,25,29.88,29.76,11,1,17,0.00
2014-10-1,71.0,57.3,40.0,41.3,35.5,28.9,92,48,23,29.93,29.73,17,2,20,0.00
2014-10-2,70.0,55.7,39.0,35.4,21.7,13.1,66,30,13,30.04,29.91,15,2,20,0.00
2014-10-3,76.0,53.9,34.0,31.9,19.8,10.9,60,32,9,30.10,29.99,11,1,19,0.00
2014-10-4,79.0,58.3,41.0,34.1,25.6,20.0,60,33,12,30.06,29.97,16,1,16,0.00
2014-10-5,79.0,58.6,42.0,35.2,25.8,20.0,54,33,12,30.02,29.93,12,1,15,0.00
2014-10-6,84.0,60.4,42.0,40.3,29.1,22.4,54,34,14,29.99,29.91,12,0,12,0.00
2014-10-7,78.0,57.1,46.0,42.3,33.9,27.5,74,45,18,29.97,29.88,22,1,22,0.00
2014-10-8,77.0,57.1,42.0,43.8,35.9,31.5,75,49,22,29.91,29.84,11,1,12,0.00
2014-10-9,78.0,55.8,42.0,48.8,37.4,28.3,83,56,21,29.92,29.83,13,1,14,0.00
2014-10-10,75.0,56.5,38.0,44.3,37.7,29.8,83,54,26,29.97,29.88,16,1,16,0.00
2014-10-11,79.0,55.1,39.0,46.6,37.8,34.3,90,58,24,29.99,29.90,10,0,13,0.00
2014-10-12,75.0,57.3,42.0,37.9,26.3,3.8,77,38,7,29.96,29.85,17,2,20,0.00
2014-10-13,72.0,55.9,39.0,31.0,19.8,10.1,60,28,9,30.05,29.95,16,1,18,0.00
2014-10-14,70.0,54.8,40.0,48.3,34.6,23.9,79,49,22,29.96,29.83,17,1,23,0.00
2014-10-15,66.0,53.7,47.0,49.4,42.1,30.8,97,67,41,29.88,29.82,14,1,16,0.00
2014-10-16,74.0,52.3,38.0,44.8,36.9,20.8,97,61,19,29.91,29.83,10,0,11,0.00
2014-10-17,68.0,51.3,37.0,46.5,34.2,15.5,94,56,19,29.88,29.81,13,0,13,0.00
2014-10-18,67.0,49.9,35.0,41.8,34.7,21.0,87,60,31,29.84,29.79,8,1,10,0.00
2014-10-19,76.0,53.0,38.0,46.8,39.6,34.5,90,65,33,29.88,29.78,8,0,14,0.00
2014-10-20,72.0,53.5,41.0,48.9,42.7,38.3,93,70,38,29.90,29.83,16,0,20,0.00
2014-10-21,71.0,51.4,37.0,43.1,38.3,31.7,100,67,30,29.86,29.80,12,0,15,0.00
2014-10-22,73.0,47.6,37.0,38.8,30.1,21.4,86,55,21,29.96,29.82,8,0,9,0.00
2014-10-23,77.0,56.9,40.0,31.4,27.8,24.0,61,36,16,30.01,29.92,19,0,19,0.00
2014-10-24,76.0,58.1,46.0,37.1,33.1,28.1,61,41,22,30.02,29.94,20,1,23,0.00
2014-10-25,68.0,55.5,47.0,44.1,40.6,32.3,79,58,40,29.99,29.92,8,1,19,0.00
2014-10-26,64.0,49.8,37.0,43.1,38.5,32.6,100,68,38,29.93,29.79,13,1,17,0.00
2014-10-27,64.0,44.7,31.0,39.2,33.5,28.5,100,70,29,29.88,29.77,9,1,10,0.00
2014-10-28,66.0,47.5,34.0,35.4,31.6,26.7,97,61,26,29.98,29.87,9,0,10,0.00
2014-10-29,70.0,49.0,34.0,34.4,27.2,22.1,82,49,19,30.03,29.95,10,0,13,0.00
2014-10-30,72.0,51.2,36.0,41.0,31.4,24.8,77,51,20,29.96,29.87,16,0,19,0.00
2014-10-31,62.0,50.8,44.0,47.2,40.2,31.2,100,70,47,29.88,29.67,20,2,28,0.12
2014-11-1,45.0,38.7,34.0,45.0,38.7,34.0,100,100,100,29.76,29.63,29,2,34,0.93
2014-11-2,48.0,37.0,30.0,42.1,33.8,30.0,100,89,57,29.87,29.75,10,0,12,0.00
2014-11-3,44.0,32.0,29.0,31.8,29.7,18.1,100,92,38,29.96,29.86,19,0,26,0.00
2014-11-5,57.0,50.0,38.0,27.9,20.0,15.8,64,33,21,30.08,30.05,7,1,9,0.00
2014-11-6,67.0,46.4,33.0,35.8,29.6,25.6,87,58,24,30.13,30.05,9,0,10,0.00
2014-11-7,69.0,46.7,33.0,33.5,26.3,13.8,84,53,15,30.07,30.00,8,0,9,0.00
2014-11-8,70.0,47.8,34.0,36.3,29.2,24.2,78,54,22,30.06,29.97,9,0,9,0.00
2014-11-9,74.0,49.9,36.0,38.6,31.0,25.0,82,54,20,29.97,29.77,11,0,14,0.00
2014-11-10,63.0,51.0,38.0,41.8,34.4,22.7,81,56,33,29.78,29.73,15,1,16,0.00
2014-11-11,64.0,45.0,36.0,45.5,35.5,23.1,100,72,28,29.78,29.72,10,0,11,0.00
2014-11-12,60.0,42.3,34.0,41.0,34.9,25.1,100,78,29,29.82,29.75,5,0,6,0.00
2014-11-13,59.0,47.2,34.0,46.6,40.5,28.8,99,79,60,29.90,29.79,11,1,13,0.00
2014-11-14,60.0,45.0,32.0,46.7,40.0,30.5,100,85,33,29.87,29.80,9,0,13,0.00
2014-11-15,58.0,40.2,29.0,46.9,36.1,23.9,100,86,43,29.89,29.83,9,0,13,0.00
2014-11-16,45.0,38.2,35.0,34.1,5.5,-7.6,89,31,13,30.02,29.84,21,8,28,0.00
2014-11-17,49.0,39.8,28.0,16.1,2.7,-5.9,59,21,15,30.01,29.96,16,3,17,0.00
2014-11-18,54.0,36.6,23.0,24.7,15.8,9.5,76,47,20,30.03,29.95,6,0,7,0.00
2014-11-19,58.0,40.5,30.0,24.7,19.4,9.6,73,46,19,29.93,29.89,12,0,13,0.00
2014-11-20,55.0,39.8,28.0,41.7,33.7,20.4,100,80,48,29.90,29.77,12,0,15,0.00
2014-11-21,50.0,39.1,29.0,39.7,34.0,29.0,100,84,57,29.88,29.74,11,1,13,0.12
2014-11-22,62.0,51.7,28.0,41.4,35.6,23.2,100,55,36,29.92,29.86,9,0,11,0.00
2014-11-23,51.0,40.8,27.0,39.4,19.8,4.0,96,52,16,30.02,29.87,27,4,27,0.00
2014-11-24,52.0,39.1,26.0,17.9,11.9,4.1,70,37,20,30.16,29.96,19,3,21,0.00
2014-11-25,60.0,38.9,23.0,17.9,10.8,-6.5,76,39,7,30.21,30.14,9,0,10,0.00
2014-11-26,66.0,50.5,33.0,25.6,18.3,12.5,66,31,17,30.18,30.08,13,1,14,0.00
2014-11-27,75.0,45.2,31.0,28.7,21.7,15.4,68,44,13,30.09,29.95,5,0,6,0.00
2014-11-28,68.0,47.5,37.0,22.4,19.8,16.5,53,36,16,29.96,29.81,12,0,17,0.00
2014-11-29,61.0,45.8,34.0,34.9,23.3,13.0,66,43,24,29.81,29.70,17,1,22,0.00
2014-11-30,44.0,42.4,38.0,44.0,38.3,10.5,100,89,26,29.91,29.69,19,1,27,0.17
2014-12-1,54.0,42.3,34.0,54.0,41.0,31.0,100,96,59,29.99,29.89,2,0,5,0.18
2014-12-2,49.0,44.3,42.0,47.7,41.0,30.7,100,89,57,29.89,29.73,15,0,17,0.40
2014-12-3,51.0,48.6,46.0,51.0,48.6,46.0,100,100,100,29.86,29.78,12,0,15,0.22
2014-12-4,52.0,42.9,31.0,50.0,42.7,31.0,100,99,87,29.87,29.79,13,0,15,0.08
2014-12-5,51.0,41.2,32.0,50.0,40.7,32.0,100,98,87,29.96,29.85,8,0,12,0.09
2014-12-6,52.0,42.8,33.0,48.2,41.6,33.0,100,96,75,30.03,29.94,8,0,10,0.06
2014-12-7,54.0,40.1,30.0,49.6,39.1,30.0,100,97,78,30.05,29.99,5,0,6,0.05
2014-12-8,53.0,39.2,32.0,46.0,37.1,32.0,100,93,67,30.03,29.97,6,0,6,0.04
2014-12-9,57.0,38.2,29.0,46.1,34.2,29.0,100,88,49,30.03,29.92,9,0,11,0.04
2014-12-10,58.0,42.0,29.0,49.3,32.6,25.4,100,73,38,29.93,29.84,8,0,10,0.03
2014-12-11,54.0,46.4,42.0,44.5,38.2,26.9,100,75,44,29.86,29.72,27,1,31,0.03
2014-12-12,42.0,35.5,33.0,42.0,35.5,33.0,100,100,100,29.83,29.69,22,1,31,0.90
2014-12-13,41.0,33.7,26.0,37.7,32.1,26.0,100,94,75,29.90,29.81,12,1,13,0.30
2014-12-14,49.0,32.1,24.0,45.0,31.1,24.0,100,96,72,29.90,29.84,5,0,6,0.00
2014-12-15,47.0,35.6,26.0,42.4,32.3,26.0,100,89,67,29.87,29.77,10,0,18,0.16
2014-12-16,42.0,37.7,33.0,42.0,37.0,32.7,100,98,78,29.83,29.77,9,0,15,0.00
2014-12-17,39.0,34.6,31.0,39.0,34.6,31.0,100,100,100,29.87,29.72,9,0,13,0.33
2014-12-18,40.0,31.8,26.0,38.1,30.6,26.0,100,96,71,29.98,29.84,8,0,9,0.00
2014-12-19,52.0,33.5,25.0,46.7,31.9,25.0,100,94,72,29.99,29.94,7,0,7,0.01
2014-12-20,50.0,38.6,27.0,41.8,35.6,27.0,100,90,65,29.98,29.89,17,2,19,0.00
2014-12-21,57.0,42.7,31.0,50.6,39.6,31.0,100,90,58,30.01,29.94,12,2,16,0.00
2014-12-22,64.0,47.0,32.0,40.7,35.4,26.8,100,69,29,30.00,29.93,10,1,13,0.00
2014-12-23,56.0,48.1,31.0,33.4,30.2,24.5,95,51,38,30.07,29.98,15,3,19,0.00
2014-12-24,56.0,42.5,28.0,37.7,31.9,26.8,97,69,44,29.96,29.64,17,0,17,0.00
2014-12-25,37.0,31.7,25.0,36.0,21.7,3.6,96,69,26,29.72,29.60,20,8,28,0.00
2014-12-26,34.0,27.6,23.0,12.5,10.0,8.0,61,47,36,29.92,29.69,19,6,20,0.00
2014-12-27,35.0,26.0,19.0,15.5,9.6,4.5,79,51,31,30.06,29.91,16,4,17,0.00
2014-12-28,45.0,28.7,18.0,19.6,11.8,0.8,84,55,17,30.01,29.90,9,0,9,0.00
2014-12-29,55.0,35.0,21.0,29.4,13.3,-1.2,90,49,12,29.92,29.76,12,1,17,0.00
2014-12-30,34.0,25.9,19.0,30.5,24.8,19.0,100,96,67,29.76,29.67,16,2,20,0.00
2014-12-31,24.0,19.3,14.0,19.0,7.8,3.4,100,62,42,29.76,29.66,26,6,27,0.00
2015-1-1,36.0,22.1,6.0,11.8,2.3,-4.6,100,51,19,29.86,29.72,11,1,12,0.00
2015-1-2,44.0,27.8,16.0,18.5,9.4,-0.2,87,50,24,29.89,29.81,11,1,12,0.02